Weather History for Marshfield, WI

Change the Weather History Date:

Thursday, May 16, 2013

  Actual Average Record
Temperature  
Mean Temperature 63 °F -  
Max Temperature 79 °F 70 °F 85 °F (1936)
Min Temperature 48 °F 43 °F 25 °F (1956)
Degree Days  
Heating Degree Days 2    
Growing Degree Days 13 (Base 50)    
Moisture  
Dew Point 44 °F    
Average Humidity 50    
Maximum Humidity 83    
Minimum Humidity 25    
Precipitation  
Precipitation 0.00 in - - ()
Sea Level Pressure  
Sea Level Pressure 29.91 in    
Wind  
Wind Speed 4 mph (East)    
Max Wind Speed 12 mph    
Max Gust Speed -    
Visibility 10 miles    
Events      
Averages and records for this station are not official NWS values.
T = Trace of Precipitation, MM = Missing Value Source: NWS Daily Summary

Daily Weather History Graph

Daily Weather History Graph

Search for Another Location

Airport:

Trip Planner

Search our weather history database for the weather conditions in past years. The results will help you decide how hot, cold, wet, or windy it might be!

Date:

Astronomy

May. 16, 2013 Rise Set
Actual Time 5:31 AM CDT 8:23 PM CDT
Civil Twilight 4:57 AM CDT 8:57 PM CDT
Nautical Twilight 4:14 AM CDT 9:41 PM CDT
Astronomical Twilight 3:23 AM CDT 10:32 PM CDT
Moon 11:09 AM CDT (5/16) 12:40 AM CDT (5/16)
Length of Visible Light 16h 00m
Length of Day
14h 52m
Waxing Crescent, 36% of the Moon is Illuminated
May 16
Waxing Crescent
May 17
First Quarter
May 24
Full
May 31
Last Quarter
Jun 8
New

Hourly Weather History & Observations

Time (CDT) Temp. Dew Point Humidity Pressure Visibility Wind Dir Wind Speed Gust Speed Precip Events Conditions
12:54 AM 60.1 °F 44.1 °F 55% 29.85 in 10.0 mi West 5.8 mph - N/A   Clear
1:54 AM 55.9 °F 44.1 °F 64% 29.86 in 10.0 mi Calm Calm - N/A   Clear
2:54 AM 53.1 °F 44.1 °F 71% 29.86 in 10.0 mi Calm Calm - N/A   Clear
3:54 AM 53.1 °F 44.1 °F 71% 29.87 in 10.0 mi Calm Calm - N/A   Clear
4:54 AM 48.9 °F 44.1 °F 83% 29.87 in 10.0 mi Calm Calm - N/A   Clear
5:54 AM 50.0 °F 45.0 °F 83% 29.89 in 10.0 mi NE 3.5 mph - N/A   Mostly Cloudy
6:54 AM 55.0 °F 46.9 °F 74% 29.90 in 10.0 mi Calm Calm - N/A   Partly Cloudy
7:54 AM 62.1 °F 50.0 °F 65% 29.91 in 10.0 mi Calm Calm - N/A   Clear
8:54 AM 66.9 °F 48.9 °F 52% 29.92 in 10.0 mi Calm Calm - N/A   Mostly Cloudy
9:54 AM 71.1 °F 43.0 °F 36% 29.93 in 10.0 mi East 6.9 mph - N/A   Clear
10:54 AM 73.0 °F 39.9 °F 30% 29.93 in 10.0 mi NE 5.8 mph - N/A   Clear
11:54 AM 75.0 °F 44.1 °F 33% 29.92 in 10.0 mi ENE 9.2 mph - N/A   Clear
12:54 PM 75.9 °F 43.0 °F 31% 29.91 in 10.0 mi Calm Calm - N/A   Clear
2:54 PM 77.0 °F 39.0 °F 25% 29.91 in 10.0 mi East 5.8 mph - N/A   Clear
3:54 PM 77.0 °F 39.0 °F 25% 29.89 in 10.0 mi Variable 5.8 mph - N/A   Clear
5:54 PM 78.1 °F 42.1 °F 28% 29.90 in 10.0 mi North 6.9 mph - N/A   Clear
6:54 PM 75.9 °F 41.0 °F 29% 29.90 in 10.0 mi North 5.8 mph - N/A   Overcast
7:54 PM 71.1 °F 48.9 °F 45% 29.91 in 10.0 mi SE 11.5 mph - N/A   Overcast
8:54 PM 66.0 °F 48.0 °F 52% 29.96 in 10.0 mi ESE 9.2 mph - N/A   Scattered Clouds
9:54 PM 63.0 °F 43.0 °F 48% 29.99 in 10.0 mi East 11.5 mph - N/A   Partly Cloudy
10:54 PM 61.0 °F 37.9 °F 42% 29.99 in 10.0 mi East 10.4 mph - N/A   Partly Cloudy
11:54 PM 57.9 °F 42.1 °F 56% 30.01 in 10.0 mi East 11.5 mph - N/A   Clear